Location: Nairn
(57.5833°N, 3.8667°W)
Time: 03:21:49
(UTC+00:00)

SJ 16-02 - Pass Details

Date: 07 August 2020
Orbit: 607 x 616 km, 75.0° (Epoch: 27 September)

Event Time Altitude Azimuth Distance (km) Brightness Sun altitude
Exits shadow 03:02:06 10° 196° (SSW) 1,996 3.4 -9.0°
Reaches altitude 10° 03:02:09 10° 196° (SSW) 1,974 3.4 -9.0°
Maximum altitude 03:06:32 70° 114° (ESE) 658 1.6 -8.6°
Drops below altitude 10° 03:10:57 10° 31° (NNE) 1,983 5.6 -8.2°
Sets 03:13:12 0° 29° (NNE) 2,891 6.8 -8.0°
